VA2CPJ Weather Reports


Display with metric or nautical units.
time (UTC)temp
F
wind
direction
speed
MPH
gust
MPH
rain 1hr
in
rain 24hr
in
rain mn
in
humidity
%
barometer
mb
20260508025020 42 317 7.0 11.0 0.00 0.00 0.00 89 1014.0
20260508024733 42 332 4.0 6.0 0.00 0.00 0.00 88 1015.0
20260508024543 42 321 5.0 10.0 0.00 0.00 0.00 88 1015.0
20260508024034 42 328 5.0 8.0 0.00 0.00 0.00 88 1014.0
20260508023704 42 329 3.0 4.0 0.00 0.00 0.00 88 1015.0
20260508023519 42 329 3.0 4.0 0.00 0.00 0.00 88 1015.0
20260508023030 42 317 4.0 8.0 0.00 0.00 0.00 88 1014.0
20260508022559 42 323 5.0 8.0 0.00 0.00 0.00 88 1015.0
20260508022524 42 321 5.0 7.0 0.00 0.00 0.00 88 1015.0
20260508022026 42 328 6.0 9.0 0.00 0.00 0.00 88 1014.0
20260508021546 42 334 4.0 6.0 0.00 0.00 0.00 89 1015.0
20260508021520 42 315 5.0 8.0 0.00 0.00 0.00 89 1015.0
20260508021043 42 318 5.0 9.0 0.00 0.00 0.00 89 1014.0
20260508020551 42 320 5.0 5.0 0.00 0.00 0.00 90 1015.0
20260508020525 42 316 5.0 9.0 0.00 0.00 0.00 90 1015.0
20260508020047 42 311 5.0 10.0 0.00 0.00 0.00 90 1014.0
20260508015724 42 296 6.0 6.0 0.00 0.00 0.00 90 1015.0
20260508015521 42 315 5.0 8.0 0.00 0.00 0.00 90 1015.0
20260508015033 42 307 6.0 11.0 0.00 0.00 0.00 90 1014.0
20260508014527 42 320 5.0 8.0 0.00 0.00 0.00 89 1015.0
20260508014020 42 312 6.0 9.0 0.00 0.00 0.00 89 1014.0
20260508013659 43 311 6.0 8.0 0.00 0.00 0.00 88 1015.0
20260508013522 43 314 6.0 9.0 0.00 0.00 0.00 88 1015.0
20260508013025 43 313 7.0 10.0 0.00 0.00 0.00 88 1014.0
20260508012709 43 304 6.0 9.0 0.00 0.00 0.00 87 1015.0
20260508012539 43 313 6.0 13.0 0.00 0.00 0.00 87 1015.0
20260508012021 43 318 6.0 9.0 0.00 0.00 0.00 87 1014.0
20260508011642 43 283 4.0 5.0 0.00 0.00 0.00 87 1015.0
20260508011533 43 289 5.0 10.0 0.00 0.00 0.00 87 1015.0
20260508011040 43 309 5.0 8.0 0.00 0.00 0.00 88 1014.0
20260508010615 43 301 7.0 10.0 0.00 0.00 0.00 88 1014.7
20260508010540 43 307 7.0 11.0 0.00 0.00 0.00 88 1015.0
20260508010022 43 310 6.0 10.0 0.00 0.00 0.00 88 1014.0
20260508005600 43 313 6.0 11.0 0.00 0.00 0.00 88 1014.7
20260508005545 43 316 9.0 11.0 0.00 0.00 0.00 88 1014.7
20260508005022 43 298 5.0 10.0 0.00 0.00 0.00 88 1014.0
20260508004539 43 316 6.0 8.0 0.00 0.00 0.00 88 1014.7
20260508004521 43 307 6.0 9.0 0.00 0.00 0.00 87 1015.0
20260508004033 43 314 6.0 12.0 0.00 0.00 0.00 86 1013.7
20260508003628 43 314 10.0 11.0 0.00 0.00 0.00 86 1014.7
20260508003526 43 309 9.0 17.0 0.00 0.00 0.00 86 1014.7
20260508003020 44 308 9.0 13.0 0.00 0.00 0.00 85 1013.7
20260508002650 44 286 7.0 7.0 0.00 0.00 0.00 85 1014.3
20260508002540 44 284 8.0 16.0 0.00 0.00 0.00 85 1014.7
20260508002101 44 290 8.0 14.0 0.00 0.00 0.00 85 1013.7
20260508001554 44 293 9.0 12.0 0.00 0.00 0.00 85 1014.3
20260508001545 44 301 8.0 12.0 0.00 0.00 0.00 85 1014.3
20260508001030 44 289 7.0 13.0 0.00 0.00 0.00 85 1013.3
20260508000801 44 279 7.0 10.0 0.00 0.00 0.00 84 1014.0
20260508000532 44 269 7.0 10.0 0.00 0.00 0.00 84 1014.3
20260508000035 44 256 9.0 16.0 0.00 0.00 0.00 84 1013.3
20260507235529 44 257 11.0 13.0 0.00 0.00 0.00 84 1014.0
20260507235520 44 256 11.0 18.0 0.00 0.00 0.00 84 1014.0
20260507235031 45 267 10.0 17.0 0.00 0.00 0.00 82 1013.3
20260507234600 46 299 9.0 13.0 0.00 0.00 0.00 77 1014.0
20260507234545 46 295 9.0 15.0 0.00 0.00 0.00 77 1014.0
20260507234059 46 293 12.0 17.0 0.00 0.00 0.00 76 1013.0
20260507233547 46 304 8.0 8.0 0.00 0.00 0.00 77 1013.7
20260507233530 46 314 13.0 24.0 0.00 0.00 0.00 76 1014.0
20260507233104 47 313 10.0 13.0 0.00 0.00 0.00 78 1013.0
20260507232544 46 293 8.0 12.0 0.00 0.00 0.00 77 1013.7
20260507232535 46 306 7.0 12.0 0.00 0.00 0.00 77 1014.0
20260507232040 46 308 10.0 13.0 0.00 0.00 0.00 77 1013.0
20260507231549 46 321 10.0 13.0 0.00 0.00 0.00 78 1013.7
20260507231531 46 310 9.0 13.0 0.00 0.00 0.00 78 1013.7
20260507231025 46 291 10.0 15.0 0.00 0.00 0.00 79 1012.6
20260507230637 46 303 10.0 16.0 0.00 0.00 0.00 80 1013.7
20260507230519 46 306 9.0 16.0 0.00 0.00 0.00 79 1013.7
20260507230030 46 295 9.0 14.0 0.00 0.00 0.00 79 1012.6
20260507225726 46 295 10.0 16.0 0.00 0.00 0.00 79 1013.7
20260507225524 46 312 10.0 16.0 0.00 0.00 0.00 80 1013.7
20260507225052 46 306 10.0 17.0 0.00 0.00 0.00 80 1012.6
20260507224528 46 311 11.0 13.0 0.00 0.00 0.00 80 1013.7
20260507224520 46 310 9.0 14.0 0.00 0.00 0.00 80 1013.7
20260507224022 46 303 8.0 11.0 0.00 0.00 0.00 80 1012.6
20260507223542 46 290 10.0 13.0 0.00 0.00 0.00 80 1013.7
20260507223525 46 285 7.0 8.0 0.00 0.00 0.00 81 1013.3
20260507223106 46 265 10.0 17.0 0.00 0.00 0.00 80 1012.6
20260507222530 46 250 11.0 20.0 0.00 0.00 0.00 79 1013.3
20260507222521 46 262 15.0 20.0 0.00 0.00 0.00 79 1013.3
20260507222023 46 249 12.0 18.0 0.00 0.00 0.00 79 1012.3
20260507221602 46 234 15.0 19.0 0.00 0.00 0.00 79 1013.3
20260507221526 46 250 10.0 18.0 0.00 0.00 0.00 79 1013.3
20260507221049 46 264 9.0 19.0 0.00 0.00 0.00 79 1012.6
20260507220522 46 244 12.0 19.0 0.00 0.00 0.00 78 1013.3
20260507220025 46 253 11.0 20.0 0.00 0.00 0.00 78 1012.6
20260507215611 47 249 12.0 27.0 0.00 0.00 0.00 78 1013.3
20260507215519 47 246 10.0 15.0 0.00 0.00 0.00 78 1013.3
20260507215021 47 282 10.0 14.0 0.00 0.00 0.00 75 1012.3
20260507214524 47 295 11.0 16.0 0.00 0.00 0.00 74 1013.3
20260507214035 48 292 12.0 17.0 0.00 0.00 0.00 73 1012.3
20260507213529 48 285 9.0 12.0 0.00 0.00 0.00 74 1013.3
20260507213521 48 300 9.0 13.0 0.00 0.00 0.00 74 1013.3
20260507213023 47 296 11.0 17.0 0.00 0.00 0.00 75 1012.3
20260507212542 48 305 13.0 20.0 0.00 0.00 0.00 73 1013.0
20260507212525 48 297 14.0 20.0 0.00 0.00 0.00 73 1013.0
20260507212018 49 297 11.0 20.0 0.00 0.00 0.00 72 1011.9
20260507211521 49 296 12.0 18.0 0.00 0.00 0.00 74 1013.0
20260507211024 49 265 11.0 18.0 0.00 0.00 0.00 77 1011.9
20260507210552 47 271 9.0 14.0 0.00 0.00 0.00 78 1012.6
20260507210535 47 260 11.0 15.0 0.00 0.00 0.00 78 1013.0
20260507210020 47 259 12.0 17.0 0.00 0.00 0.00 78 1011.9
20260507205522 47 279 11.0 15.0 0.00 0.00 0.00 78 1013.0
20260507205103 47 253 10.0 13.0 0.00 0.00 0.00 78 1011.9
20260507204602 47 271 10.0 15.0 0.00 0.00 0.00 79 1012.6
20260507204518 47 270 10.0 16.0 0.00 0.00 0.00 79 1012.6
20260507204050 48 263 13.0 18.0 0.00 0.00 0.00 78 1011.9
20260507203532 48 267 9.0 13.0 0.00 0.00 0.00 78 1013.0
20260507203524 48 269 11.0 15.0 0.00 0.00 0.00 78 1012.6
20260507203052 47 279 10.0 13.0 0.00 0.00 0.00 76 1011.9
20260507202546 46 279 9.0 13.0 0.00 0.00 0.00 78 1012.6
20260507202528 46 280 8.0 13.0 0.00 0.00 0.00 78 1012.6
20260507202049 46 294 10.0 14.0 0.00 0.00 0.00 77 1011.9
20260507201534 46 315 8.0 13.0 0.00 0.00 0.00 77 1013.0
20260507201019 46 308 8.0 13.0 0.00 0.00 0.00 78 1011.9
20260507200608 46 303 6.0 11.0 0.00 0.00 0.00 78 1012.6
20260507200538 46 310 7.0 11.0 0.00 0.00 0.00 78 1013.0
20260507200024 46 303 10.0 15.0 0.00 0.00 0.00 77 1011.9
20260507195630 46 302 12.0 17.0 0.00 0.00 0.00 77 1012.6
20260507195535 47 303 12.0 16.0 0.00 0.00 0.00 77 1013.0
20260507195037 47 302 12.0 18.0 0.00 0.00 0.00 76 1011.9
20260507194548 47 297 12.0 18.0 0.00 0.00 0.00 75 1012.6
20260507194544 47 302 12.0 18.0 0.00 0.00 0.00 75 1013.0
20260507194111 48 304 14.0 19.0 0.00 0.00 0.00 74 1011.9
20260507193634 48 304 16.0 20.0 0.00 0.00 0.00 73 1012.6
20260507193559 48 306 16.0 20.0 0.00 0.00 0.00 73 1013.0
20260507193035 48 308 14.0 22.0 0.00 0.00 0.00 74 1011.6
20260507192729 48 309 12.0 17.0 0.00 0.00 0.00 76 1012.6
20260507192523 49 306 11.0 17.0 0.00 0.00 0.00 76 1012.6
20260507192027 48 309 13.0 18.0 0.00 0.00 0.00 76 1011.6
20260507191537 49 299 11.0 18.0 0.00 0.00 0.00 74 1012.6
20260507191528 49 296 10.0 13.0 0.00 0.00 0.00 74 1012.6
20260507191029 50 286 6.0 9.0 0.00 0.00 0.00 75 1011.6
20260507190542 49 280 4.0 6.0 0.00 0.00 0.00 75 1012.3
20260507190525 50 287 4.0 7.0 0.00 0.00 0.00 76 1012.3
20260507190018 49 319 2.0 6.0 0.00 0.00 0.00 78 1011.6
20260507185538 49 327 3.0 6.0 0.00 0.00 0.00 78 1012.6
20260507185521 49 317 4.0 6.0 0.00 0.00 0.00 78 1012.6
20260507185045 49 317 4.0 8.0 0.00 0.00 0.00 78 1011.6
20260507184654 49 312 3.0 7.0 0.00 0.00 0.00 80 1012.6
20260507184526 49 312 4.0 7.0 0.00 0.00 0.00 80 1012.6
20260507184022 49 306 4.0 7.0 0.00 0.00 0.00 80 1011.9
20260507183606 48 305 4.0 5.0 0.00 0.00 0.00 81 1012.6
20260507183532 48 297 3.0 5.0 0.00 0.00 0.00 81 1013.0
20260507183036 48 266 3.0 6.0 0.00 0.00 0.00 81 1011.9
20260507182536 48 294 3.0 4.0 0.00 0.00 0.00 80 1012.6
20260507182527 48 283 3.0 5.0 0.00 0.00 0.00 80 1013.0
20260507182030 48 262 5.0 8.0 0.00 0.00 0.00 81 1011.9
20260507181532 48 234 5.0 6.0 0.00 0.00 0.00 81 1013.0
20260507181523 48 250 4.0 6.0 0.00 0.00 0.00 81 1013.0
20260507181052 47 283 5.0 7.0 0.00 0.00 0.00 82 1011.9
20260507180709 47 311 5.0 6.0 0.00 0.00 0.00 83 1013.0
20260507180546 47 300 6.0 9.0 0.00 0.00 0.00 83 1013.0
20260507180135 47 269 6.0 10.0 0.00 0.00 0.00 84 1012.3
20260507175551 47 269 5.0 10.0 0.00 0.00 0.00 87 1013.3
20260507175542 47 254 6.0 9.0 0.00 0.00 0.00 87 1013.0
20260507175018 46 263 5.0 9.0 0.00 0.00 0.00 88 1012.3
20260507174539 46 276 7.0 12.0 0.00 0.00 0.00 89 1013.3
20260507174521 46 272 7.0 12.0 0.00 0.00 0.00 89 1013.3
20260507174032 46 256 7.0 11.0 0.00 0.00 0.00 90 1012.3
20260507173526 45 271 7.0 12.0 0.00 0.00 0.00 90 1013.3
20260507173020 45 262 8.0 13.0 0.00 0.00 0.00 90 1012.3
20260507172522 46 269 6.0 11.0 0.00 0.00 0.00 90 1013.3
20260507172105 46 249 4.0 8.0 0.00 0.00 0.00 90 1012.3
20260507171527 46 267 5.0 8.0 0.00 0.00 0.00 91 1013.3
20260507171518 46 270 5.0 8.0 0.00 0.00 0.00 91 1013.3
20260507171021 46 288 7.0 14.0 0.00 0.00 0.00 91 1012.6
20260507170558 45 270 7.0 13.0 0.00 0.00 0.00 92 1013.3
20260507170523 45 257 8.0 13.0 0.00 0.00 0.00 91 1013.3
20260507170044 45 281 8.0 13.0 0.00 0.00 0.00 94 1012.6
20260507165520 45 297 6.0 12.0 0.00 0.00 0.00 96 1013.3
20260507165036 45 286 5.0 13.0 0.00 0.00 0.00 96 1012.6
20260507164634 45 264 3.0 5.0 0.00 0.00 0.00 96 1013.3
20260507164525 45 263 4.0 7.0 0.00 0.00 0.00 96 1013.7
20260507164027 44 250 3.0 8.0 0.00 0.00 0.00 96 1012.6
20260507163631 44 268 3.0 7.0 0.00 0.00 0.00 96 1013.7
20260507163521 44 271 4.0 7.0 0.00 0.00 0.00 96 1013.7
20260507163028 44 275 5.0 9.0 0.00 0.00 0.00 96 1012.6
20260507162535 44 242 3.0 5.0 0.00 0.00 0.00 95 1013.7
20260507162042 44 235 3.0 6.0 0.00 0.00 0.00 95 1012.6
20260507161522 44 277 4.0 5.0 0.00 0.00 0.00 95 1013.7
20260507161039 45 266 3.0 8.0 0.00 0.00 0.00 95 1012.6
20260507160536 45 282 3.0 4.0 0.00 0.00 0.00 95 1013.7
20260507160030 45 320 3.0 7.0 0.00 0.00 0.00 94 1013.0
20260507155544 44 298 3.0 6.0 0.00 0.00 0.00 94 1013.7
20260507155027 45 295 2.0 5.0 0.00 0.00 0.00 94 1013.0
20260507154519 45 334 3.0 5.0 0.00 0.00 0.00 94 1013.7
20260507154100 45 259 3.0 6.0 0.00 0.00 0.00 93 1013.0
20260507153634 45 261 2.0 4.0 0.00 0.00 0.00 93 1013.7
20260507153626 45 261 3.0 6.0 0.00 0.00 0.00 93 1014.0
20260507153042 45 330 4.0 7.0 0.00 0.00 0.00 93 1013.0
20260507152616 45 314 6.0 8.0 0.00 0.00 0.00 92 1014.0
20260507152521 45 321 5.0 8.0 0.00 0.00 0.00 92 1014.0
20260507152121 45 324 4.0 8.0 0.00 0.00 0.00 91 1013.0
20260507151526 45 326 5.0 8.0 0.00 0.00 0.00 91 1014.0
20260507151100 45 317 5.0 8.0 0.00 0.00 0.00 91 1013.3
20260507150540 45 315 6.0 8.0 0.00 0.00 0.00 90 1014.3
20260507150522 45 318 6.0 8.0 0.00 0.00 0.00 90 1014.0
20260507150025 45 297 5.0 10.0 0.00 0.00 0.00 91 1013.3
20260507145553 45 313 5.0 8.0 0.00 0.00 0.00 91 1014.3
20260507145538 45 316 5.0 7.0 0.00 0.00 0.00 91 1014.0
20260507145021 44 301 7.0 12.0 0.00 0.00 0.00 92 1013.3
20260507144532 44 312 7.0 10.0 0.00 0.00 0.00 92 1014.3
20260507144523 44 310 7.0 10.0 0.00 0.00 0.00 92 1014.3
20260507144054 44 314 5.0 12.0 0.00 0.00 0.00 92 1013.3
20260507143554 44 303 6.0 9.0 0.00 0.00 0.00 92 1014.3
20260507143520 44 309 7.0 13.0 0.00 0.00 0.00 92 1014.3
20260507143049 44 323 6.0 10.0 0.00 0.00 0.00 92 1013.3
20260507142525 44 315 8.0 11.0 0.00 0.00 0.00 91 1014.3
20260507142018 44 318 7.0 11.0 0.00 0.00 0.00 91 1013.7
20260507141558 45 288 7.0 12.0 0.00 0.00 0.00 90 1014.3
20260507141530 45 290 7.0 15.0 0.00 0.00 0.00 90 1014.3
20260507141032 45 290 8.0 14.0 0.00 0.00 0.00 90 1013.7
20260507140552 45 298 8.0 13.0 0.00 0.00 0.00 91 1014.3
20260507140534 45 294 8.0 15.0 0.00 0.00 0.00 91 1014.3
20260507140025 44 315 7.0 10.0 0.00 0.00 0.00 91 1013.3
20260507135611 45 294 5.0 7.0 0.00 0.00 0.00 92 1014.3
20260507135527 45 286 6.0 12.0 0.00 0.00 0.00 92 1014.3
20260507135033 45 295 6.0 9.0 0.00 0.00 0.00 91 1013.3
20260507134545 45 267 6.0 8.0 0.00 0.00 0.00 91 1014.3
20260507134518 45 282 6.0 9.0 0.00 0.00 0.00 91 1014.3
20260507134025 44 274 8.0 12.0 0.00 0.00 0.00 92 1013.3
20260507133558 44 272 8.0 12.0 0.00 0.00 0.00 92 1014.3
20260507133532 44 275 8.0 11.0 0.00 0.00 0.00 92 1014.3
20260507133035 44 277 6.0 10.0 0.00 0.00 0.00 92 1013.3
20260507132537 44 292 7.0 10.0 0.00 0.00 0.00 92 1014.3
20260507132528 44 289 7.0 10.0 0.00 0.00 0.00 92 1014.3
20260507132022 44 310 5.0 10.0 0.00 0.00 0.00 93 1013.3
20260507131533 44 275 6.0 11.0 0.00 0.00 0.00 92 1014.0
20260507131524 44 276 5.0 9.0 0.00 0.00 0.00 92 1014.3
20260507131018 44 293 6.0 10.0 0.00 0.00 0.00 93 1013.3
20260507130613 44 311 5.0 8.0 0.00 0.00 0.00 93 1014.3
20260507130521 44 310 5.0 8.0 0.00 0.00 0.00 93 1014.3
20260507130029 44 300 6.0 8.0 0.00 0.00 0.00 93 1013.7
20260507125534 44 293 6.0 9.0 0.00 0.00 0.00 93 1014.3
20260507125526 44 288 6.0 9.0 0.00 0.00 0.00 93 1014.7
20260507125020 44 295 7.0 11.0 0.00 0.00 0.00 93 1013.7
20260507124522 44 300 7.0 10.0 0.00 0.00 0.00 93 1014.7
20260507124200 44 279 6.0 9.0 0.00 0.00 0.00 94 1013.7
20260507123544 44 277 6.0 10.0 0.00 0.00 0.00 94 1014.3
20260507123518 44 277 6.0 9.0 0.00 0.00 0.00 94 1014.3
20260507123041 43 276 5.0 9.0 0.00 0.00 0.00 94 1013.7
20260507122523 43 279 6.0 11.0 0.00 0.00 0.00 94 1014.7
20260507122026 43 270 8.0 12.0 0.00 0.00 0.00 94 1013.7
20260507121545 43 280 7.0 10.0 0.00 0.00 0.00 94 1014.3
20260507121519 43 285 7.0 11.0 0.00 0.00 0.00 94 1014.3
20260507121043 43 260 6.0 9.0 0.00 0.00 0.00 94 1013.3
20260507120542 43 281 7.0 9.0 0.00 0.00 0.00 94 1014.3
20260507120533 43 287 6.0 8.0 0.00 0.00 0.00 94 1014.7
20260507120018 43 279 6.0 10.0 0.00 0.00 0.00 95 1013.7
20260507115529 43 260 7.0 10.0 0.00 0.00 0.00 95 1014.3
20260507115521 43 261 6.0 8.0 0.00 0.00 0.00 95 1014.7
20260507115034 43 283 6.0 7.0 0.00 0.00 0.00 95 1013.7
20260507114603 43 254 4.0 6.0 0.00 0.00 0.00 95 1014.7
20260507114555 43 253 4.0 7.0 0.00 0.00 0.00 95 1014.3
20260507114021 43 292 5.0 7.0 0.00 0.00 0.00 95 1013.7
20260507113522 43 244 5.0 7.0 0.00 0.00 0.00 95 1014.3
20260507113024 43 266 5.0 10.0 0.00 0.00 0.00 95 1013.7
20260507112556 43 264 6.0 8.0 0.00 0.00 0.00 95 1014.3
20260507112035 43 265 4.0 6.0 0.00 0.00 0.00 95 1013.7
20260507111553 43 274 6.0 11.0 0.00 0.00 0.00 95 1014.7
20260507111523 43 268 6.0 10.0 0.00 0.00 0.00 95 1014.3
20260507111034 42 272 6.0 9.0 0.00 0.00 0.00 95 1013.7
20260507110528 42 279 7.0 10.0 0.00 0.00 0.00 95 1014.3
20260507110519 42 281 6.0 9.0 0.00 0.00 0.00 95 1014.7
20260507110022 42 284 6.0 10.0 0.00 0.00 0.00 95 1013.7
20260507105524 42 245 9.0 13.0 0.00 0.00 0.00 95 1014.7
20260507105028 42 279 7.0 13.0 0.00 0.00 0.00 95 1013.7
20260507104541 42 281 6.0 11.0 0.00 0.00 0.00 95 1014.7
20260507104520 42 276 6.0 10.0 0.00 0.00 0.00 95 1014.3
20260507104050 42 247 6.0 10.0 0.00 0.00 0.00 95 1013.3
20260507103655 42 265 5.0 9.0 0.00 0.00 0.00 95 1014.7
20260507103525 42 267 5.0 9.0 0.00 0.00 0.00 95 1014.3
20260507103029 42 265 3.0 6.0 0.00 0.00 0.00 95 1013.3
20260507102539 42 246 6.0 8.0 0.00 0.00 0.00 95 1014.3
20260507102522 42 246 5.0 8.0 0.00 0.00 0.00 95 1014.3
20260507102033 42 218 4.0 6.0 0.00 0.00 0.00 95 1013.3
20260507101619 42 197 2.0 5.0 0.00 0.00 0.00 95 1014.0
20260507101518 42 216 3.0 6.0 0.00 0.00 0.00 95 1014.0
20260507101021 42 223 3.0 8.0 0.00 0.00 0.00 94 1013.3
20260507100523 42 276 2.0 5.0 0.00 0.00 0.00 94 1014.0
20260507100031 42 244 3.0 5.0 0.00 0.00 0.00 94 1013.3
20260507095519 42 237 3.0 6.0 0.00 0.00 0.00 94 1014.0
20260507095022 42 233 5.0 9.0 0.00 0.00 0.00 94 1013.3
20260507094608 42 267 6.0 10.0 0.00 0.00 0.00 94 1014.0
20260507094533 42 259 6.0 10.0 0.00 0.00 0.00 94 1014.3
20260507094036 42 277 5.0 9.0 0.00 0.00 0.00 94 1013.3
20260507093529 42 257 5.0 10.0 0.00 0.00 0.00 94 1014.0
20260507093521 42 249 5.0 10.0 0.00 0.00 0.00 94 1014.3
20260507093043 42 296 4.0 9.0 0.00 0.00 0.00 93 1013.3
20260507092607 42 277 4.0 6.0 0.00 0.00 0.00 93 1014.3
20260507092543 42 278 4.0 7.0 0.00 0.00 0.00 93 1014.3
20260507092020 42 242 3.0 6.0 0.00 0.00 0.00 93 1013.3
20260507091539 42 304 4.0 6.0 0.00 0.00 0.00 93 1014.3
20260507091531 42 286 3.0 5.0 0.00 0.00 0.00 93 1014.3
20260507091033 42 289 4.0 6.0 0.00 0.00 0.00 93 1013.7
20260507090622 42 307 4.0 6.0 0.00 0.00 0.00 93 1014.7
20260507090526 42 307 4.0 6.0 0.00 0.00 0.00 93 1014.3
20260507090021 42 318 4.0 6.0 0.00 0.00 0.00 93 1013.7
20260507085612 42 325 4.0 5.0 0.00 0.00 0.00 93 1014.3
20260507085523 42 322 4.0 6.0 0.00 0.00 0.00 93 1014.7
20260507085026 42 332 3.0 4.0 0.00 0.00 0.00 93 1013.7
20260507084620 42 317 4.0 7.0 0.00 0.00 0.00 94 1014.3
20260507084519 42 314 4.0 6.0 0.00 0.00 0.00 94 1014.7
20260507084027 42 314 5.0 8.0 0.00 0.00 0.00 95 1013.7
20260507083608 42 317 4.0 8.0 0.00 0.00 0.00 95 1014.7
20260507083600 42 325 4.0 8.0 0.00 0.00 0.00 95 1014.7
20260507083027 42 322 4.0 5.0 0.00 0.00 0.00 96 1014.0
20260507082541 42 340 4.0 6.0 0.00 0.00 0.00 97 1014.7
20260507082529 42 339 3.0 6.0 0.00 0.00 0.00 97 1014.7
20260507082037 42 324 3.0 6.0 0.00 0.00 0.00 97 1014.0
20260507081534 42 320 4.0 5.0 0.00 0.00 0.00 97 1014.7
20260507081526 42 324 3.0 4.0 0.00 0.00 0.00 97 1014.7
20260507081019 42 322 2.0 5.0 0.00 0.00 0.00 97 1013.7
20260507080626 42 319 3.0 4.0 0.00 0.00 0.00 97 1014.3
20260507080548 42 322 3.0 5.0 0.00 0.00 0.00 97 1014.7
20260507080033 42 336 3.0 7.0 0.00 0.00 0.00 97 1013.7
20260507075555 42 313 3.0 4.0 0.00 0.00 0.00 97 1014.3
20260507075527 42 325 3.0 4.0 0.00 0.00 0.00 97 1014.7
20260507075020 42 332 2.0 3.0 0.00 0.00 0.00 97 1013.7
20260507074523 42 313 2.0 4.0 0.00 0.00 0.00 97 1014.3
20260507074057 42 326 1.0 3.0 0.00 0.00 0.00 97 1013.7
20260507073548 42 328 2.0 4.0 0.00 0.00 0.00 97 1014.7
20260507073519 42 332 1.0 3.0 0.00 0.00 0.00 97 1014.7
20260507073022 42 336 3.0 4.0 0.00 0.00 0.00 97 1014.0
20260507072600 42 323 3.0 4.0 0.00 0.00 0.00 97 1014.7
20260507072028 42 321 3.0 5.0 0.00 0.00 0.00 97 1014.0
20260507071555 42 328 2.0 4.0 0.00 0.00 0.00 97 1014.7
20260507071521 42 331 2.0 3.0 0.00 0.00 0.00 97 1014.7
20260507071023 42 310 2.0 4.0 0.00 0.00 0.00 97 1014.0
20260507070534 42 296 4.0 6.0 0.00 0.00 0.00 97 1014.7
20260507070525 42 305 4.0 6.0 0.00 0.00 0.00 97 1015.0
20260507070033 42 325 3.0 4.0 0.00 0.00 0.00 96 1014.0
20260507065559 42 308 3.0 6.0 0.00 0.00 0.00 96 1015.0
20260507065548 42 299 3.0 6.0 0.00 0.00 0.00 96 1014.7
20260507065024 42 315 3.0 5.0 0.00 0.00 0.00 96 1014.0
20260507064535 42 300 3.0 5.0 0.00 0.00 0.00 96 1015.0
20260507064527 42 285 3.0 5.0 0.00 0.00 0.00 96 1015.0
20260507064030 42 324 3.0 6.0 0.00 0.00 0.00 96 1014.0
20260507063540 42 302 3.0 5.0 0.00 0.00 0.00 96 1015.0
20260507063031 42 297 4.0 6.0 0.00 0.00 0.00 96 1014.0
20260507062609 42 307 3.0 6.0 0.00 0.00 0.00 96 1015.0
20260507062519 42 310 4.0 6.0 0.00 0.00 0.00 96 1015.0
20260507062042 42 275 3.0 6.0 0.00 0.00 0.00 96 1014.3
20260507061542 42 290 3.0 6.0 0.00 0.00 0.00 95 1015.0
20260507061524 42 295 3.0 6.0 0.00 0.00 0.00 95 1015.4
20260507061044 42 287 4.0 7.0 0.00 0.00 0.00 95 1014.3
20260507060541 43 283 2.0 5.0 0.00 0.00 0.00 95 1015.0
20260507060024 42 317 4.0 7.0 0.00 0.00 0.00 94 1014.3
20260507055525 42 308 4.0 7.0 0.00 0.00 0.00 94 1015.4
20260507055019 43 293 4.0 7.0 0.00 0.00 0.00 94 1014.7
20260507054650 43 296 5.0 8.0 0.00 0.00 0.00 94 1015.4
20260507054530 43 297 4.0 8.0 0.00 0.00 0.00 94 1015.7
20260507054053 43 294 5.0 9.0 0.00 0.00 0.00 94 1014.7
20260507053604 42 303 4.0 8.0 0.00 0.00 0.00 94 1015.4
20260507053527 42 310 5.0 8.0 0.00 0.00 0.00 94 1015.7
20260507053021 43 313 4.0 9.0 0.00 0.00 0.00 93 1014.7
20260507052615 43 317 5.0 9.0 0.00 0.00 0.00 93 1015.7
20260507052532 43 316 5.0 9.0 0.00 0.00 0.00 93 1015.4
20260507052046 42 319 4.0 7.0 0.00 0.00 0.00 93 1014.7
20260507051536 42 313 4.0 6.0 0.00 0.00 0.00 93 1015.7
20260507051528 42 318 4.0 6.0 0.00 0.00 0.00 93 1015.7
20260507051022 43 320 5.0 6.0 0.00 0.00 0.00 93 1015.0
20260507050544 43 310 4.0 7.0 0.00 0.00 0.00 93 1015.7
20260507050036 43 316 4.0 6.0 0.00 0.00 0.00 93 1015.0
20260507045541 43 324 4.0 7.0 0.00 0.00 0.00 93 1015.7
20260507045520 43 322 4.0 5.0 0.00 0.00 0.00 93 1015.7
20260507045049 43 330 3.0 6.0 0.00 0.00 0.00 93 1015.0
20260507044525 43 307 4.0 6.0 0.00 0.00 0.00 93 1015.7
20260507044039 43 321 4.0 7.0 0.00 0.00 0.00 93 1015.0
20260507043522 43 320 5.0 7.0 0.00 0.00 0.00 93 1015.7
20260507043029 43 321 4.0 10.0 0.00 0.00 0.00 93 1014.7
20260507042527 43 324 5.0 7.0 0.00 0.00 0.00 93 1015.7
20260507042020 43 329 4.0 7.0 0.00 0.00 0.00 92 1015.0
20260507041532 43 329 4.0 6.0 0.00 0.00 0.00 92 1015.7
20260507041523 43 330 4.0 6.0 0.00 0.00 0.00 92 1015.7
20260507041100 43 328 5.0 6.0 0.00 0.00 0.00 92 1014.7
20260507040612 43 310 4.0 7.0 0.00 0.00 0.00 92 1015.7
20260507040528 43 316 5.0 7.0 0.00 0.00 0.00 92 1016.0
20260507040022 44 309 8.0 13.0 0.00 0.00 0.00 91 1015.0
20260507035550 44 313 7.0 10.0 0.00 0.00 0.00 91 1016.0
20260507035037 44 315 9.0 15.0 0.00 0.00 0.00 91 1015.4
20260507034545 44 311 8.0 13.0 0.00 0.00 0.00 91 1016.0
20260507034520 44 310 7.0 11.0 0.00 0.00 0.00 91 1016.0
20260507034108 44 311 7.0 9.0 0.00 0.00 0.00 92 1015.4
20260507033545 44 305 8.0 10.0 0.00 0.00 0.00 92 1016.4
20260507033020 44 311 8.0 13.0 0.00 0.00 0.00 92 1015.4
20260507032539 44 316 8.0 13.0 0.00 0.00 0.00 92 1016.0
20260507032026 44 313 8.0 13.0 0.00 0.00 0.00 92 1015.4
20260507031605 44 312 7.0 11.0 0.00 0.00 0.00 93 1016.4
20260507031527 44 315 8.0 12.0 0.00 0.00 0.00 93 1016.0
20260507031025 44 319 9.0 14.0 0.00 0.00 0.00 93 1015.4
20260507030644 44 316 8.0 12.0 0.00 0.00 0.00 93 1016.4
20260507030552 44 310 7.0 12.0 0.00 0.00 0.00 93 1016.4
20260507030043 44 310 8.0 13.0 0.00 0.00 0.00 93 1015.4
20260507025548 44 315 6.0 8.0 0.00 0.00 0.00 93 1016.4
20260507025519 44 318 6.0 8.0 0.00 0.00 0.00 93 1016.4